Location: Pl�tzky
(52.0521°N, 11.8020°E)
Time: 17:00:08
(UTC+00:00)

COSMO-SKYMED 1 - Pass Details

Date: 22 November 2019
Orbit: 621 x 623 km, 97.9° (Epoch: 04 December)

Event Time Altitude Azimuth Distance (km) Brightness Sun altitude
Exits shadow 18:29:16 25° 332° (NNW) 1,256 4.4 -29.6°
Maximum altitude 18:30:44 32° 295° (WNW) 1,079 4.2 -29.8°
Drops below altitude 10° 18:34:35 10° 233° (SW) 1,992 5.7 -30.4°
Sets 18:36:55 0° 223° (SW) 2,894 6.5 -30.8°
